Home > Weather > Mechelen > Past weeks

Flag for Belgium Past Weather in Mechelen, Belgium — Yesterday and Last 2 Weeks

Now
66 °F

Scattered clouds.


Feels Like: 66 °F
Forecast: 54 / 71 °F
Wind: 7 mph from Northwest

Location: Brussels National Airport

Current Time: Jul 31, 2016 at 11:45:49 AM

Latest Report: Jul 31, 2016 at 10:50 AM


Visibility: N/A

Pressure: 29.98 "Hg

Humidity: 73%

Dew Point: 57 °F

Location of MechelenLocation

Past Weather in Mechelen — Graph

°F

Mechelen Temperature Yesterday

Maximum temperature yesterday: 72 °F (at 3:20 PM)
Minimum temperature yesterday: 57 °F (at 3:50 AM)
Average temperature yesterday: 64 °F

High & Low Weather Summary for the Past Weeks

 TemperatureHumidityPressure
High91 °F (Jul 20, 1:50 PM)100% (Jul 23, 1:20 AM)30.30 "Hg (Jul 23, 1:20 AM)
Low55 °F (Jul 27, 6:20 AM)36% (Jul 20, 1:50 PM)29.86 "Hg (Jul 20, 11:50 AM)
Average69 °F74%30.06 "Hg
* Reported Jul 16 10:20 AM — Jul 31 10:20 AM, Mechelen, Weather by CustomWeather, © 2016

Note: Actual official high and low records may vary slightly from our data, if they occured in-between our weather recording intervals... More about our weather records

Advertising

Mechelen Weather History for the Previous 24 Hours

Scroll right to see more
 ConditionsComfort  
Time TempWeatherWind HumidityBarometerVisibility
10:20 AM
Sun, Jul 31
64 °FBroken clouds.8 mph78%29.98 "HgN/A
9:50 AM64 °FBroken clouds.7 mph83%29.98 "Hg5 mi
9:20 AM63 °FPartly sunny.8 mph88%29.95 "Hg4 mi
8:50 AM63 °FPartly sunny.7 mph88%29.95 "Hg4 mi
8:20 AM63 °FBroken clouds.6 mph88%29.95 "Hg4 mi
7:50 AM63 °FBroken clouds.6 mph88%29.95 "Hg4 mi
7:20 AM61 °FBroken clouds.6 mph94%29.95 "Hg4 mi
6:50 AM61 °FPassing clouds.5 mph94%29.95 "Hg4 mi
6:20 AM61 °FPassing clouds.6 mph88%29.92 "Hg5 mi
5:50 AM61 °FPassing clouds.7 mph88%29.92 "Hg5 mi
5:20 AM61 °FPassing clouds.8 mph88%29.92 "Hg5 mi
4:50 AM61 °FPassing clouds.7 mph94%29.92 "Hg6 mi
4:20 AM61 °FPassing clouds.6 mph94%29.95 "HgN/A
3:50 AM61 °FPassing clouds.6 mph88%29.95 "HgN/A
3:20 AM61 °FPassing clouds.5 mph94%29.92 "HgN/A
2:50 AM63 °FClear.7 mph83%29.92 "Hg10 mi
2:20 AM63 °FClear.7 mph88%29.92 "Hg10 mi
1:50 AM63 °FClear.6 mph88%29.95 "Hg10 mi
1:20 AM63 °FPassing clouds.6 mph88%29.95 "HgN/A
12:50 AM64 °FClear.6 mph78%29.95 "Hg10 mi
12:20 AM63 °FPassing clouds.5 mph83%29.95 "HgN/A
11:50 PM
Sat, Jul 30
61 °FPassing clouds.3 mph94%29.95 "HgN/A
11:20 PM61 °FPassing clouds.5 mph88%29.95 "HgN/A
10:50 PM63 °FPassing clouds.3 mph83%29.92 "HgN/A
10:20 PM63 °FScattered clouds.5 mph83%29.95 "HgN/A
9:50 PM64 °FScattered clouds.1 mph78%29.95 "HgN/A
9:20 PM64 °FScattered clouds.3 mph83%29.92 "HgN/A
8:50 PM64 °FPartly sunny.2 mph83%29.92 "HgN/A
8:20 PM64 °FPartly sunny.6 mph83%29.92 "HgN/A
7:50 PM66 °FPartly sunny.6 mph78%29.92 "HgN/A
7:20 PM66 °FScattered clouds.5 mph78%29.92 "HgN/A
6:50 PM66 °FScattered clouds.7 mph78%29.92 "HgN/A
6:20 PM68 °FPassing clouds.8 mph73%29.92 "HgN/A
5:50 PM70 °FPassing clouds.5 mph60%29.92 "HgN/A
5:20 PM70 °FScattered clouds.7 mph60%29.92 "HgN/A
4:50 PM70 °FScattered clouds.6 mph60%29.92 "HgN/A
4:20 PM70 °FScattered clouds.2 mph57%29.92 "HgN/A
3:50 PM70 °FScattered clouds.7 mph64%29.92 "HgN/A
3:20 PM72 °FScattered clouds.3 mph65%29.92 "HgN/A
2:50 PM70 °FScattered clouds.6 mph64%29.95 "HgN/A
2:20 PM68 °FScattered clouds.6 mph73%29.95 "HgN/A
1:50 PM68 °FBroken clouds.6 mph69%29.95 "HgN/A
1:20 PM68 °FPartly sunny.6 mph73%29.95 "HgN/A
12:50 PM68 °FPartly sunny.7 mph73%29.95 "HgN/A
12:20 PM66 °FPartly sunny.7 mph73%29.95 "HgN/A
11:50 AM66 °FPartly sunny.6 mph78%29.95 "HgN/A
11:20 AM64 °FPartly sunny.6 mph78%29.95 "HgN/A
Weather by CustomWeather, © 2016

See weather overviewHow to use our weather pages